User: anonymous   Login
Location: Gisborne
(38.6530°S, 178.0040°E)
Time: 20:05:39
(UTC+13:00)
Language:

Meteor 2-6 Rocket - Orbit

View from above orbital plane
View from above orbital plane
View from above satellite
View from above satellite

Ground track
Ground track

The orbit data is extracted from the following two-line orbital elements,

1 11963U 80073B   19293.89438849 -.00000039 +00000-0 -29141-4 0  9990
2 11963 081.2802 014.9504 0074939 174.6933 185.5050 14.09708739010824
Epoch (UTC): 20 October 2019 21:27:55
Eccentricity: 0.0074939
inclination: 81.2802°
perigee height: 806 km
apogee height: 914 km
right ascension of ascending node: 14.9504°
argument of perigee: 174.6933°
revolutions per day: 14.09708739
mean anomaly at epoch: 185.5050°
orbit number at epoch: 1082

The dashed part of the orbit path shows where the satellite is in the earth's shadow,  

DLR